Weather History for Salina, KS

Change the Weather History Date:

Tuesday, April 2, 2013

  Actual Average Record
Temperature  
Mean Temperature 43 °F 51 °F  
Max Temperature 52 °F 63 °F 93 °F (1928)
Min Temperature 34 °F 39 °F 15 °F (1936)
Degree Days  
Heating Degree Days 22 14  
Month to date heating degree days 44 29  
Since 1 July heating degree days 4388 4479  
Cooling Degree Days 0 0  
Month to date cooling degree days 0 0  
Year to date cooling degree days 0 2  
Moisture  
Dew Point 21 °F    
Average Humidity 45    
Maximum Humidity 62    
Minimum Humidity 28    
Precipitation  
Precipitation 0.00 in 0.09 in 1.20 in (1957)
Month to date precipitation T 0.18  
Year to date precipitation 3.89 4.37  
Sea Level Pressure  
Sea Level Pressure 30.28 in    
Wind  
Wind Speed 7 mph (ESE)    
Max Wind Speed 14 mph    
Max Gust Speed 18 mph    
Visibility 10 miles    
Events      
T = Trace of Precipitation, MM = Missing Value Source: NWS Daily Summary

Daily Weather History Graph

Daily Weather History Graph

Search for Another Location

Airport:

Trip Planner

Search our weather history database for the weather conditions in past years. The results will help you decide how hot, cold, wet, or windy it might be!

Date:

Astronomy

Apr. 02, 2013 Rise Set
Actual Time 7:13 AM CDT 7:55 PM CDT
Civil Twilight 6:46 AM CDT 8:22 PM CDT
Nautical Twilight 6:14 AM CDT 8:54 PM CDT
Astronomical Twilight 5:42 AM CDT 9:26 PM CDT
Moon 1:58 AM CDT (4/2) 12:08 PM CDT (4/2)
Length of Visible Light 13h 35m
Length of Day
12h 42m
Waning Gibbous, 55% of the Moon is Illuminated
Apr 2
Waning Gibbous
Apr 2
Last Quarter
Apr 10
New
Apr 18
First Quarter
Apr 25
Full

Hourly Weather History & Observations

Time (CDT) Temp. Windchill Dew Point Humidity Pressure Visibility Wind Dir Wind Speed Gust Speed Precip Events Conditions
12:53 AM 37.0 °F 30.4 °F 18.0 °F 46% 30.29 in 10.0 mi ENE 9.2 mph - N/A   Clear
1:53 AM 36.0 °F 29.0 °F 19.0 °F 50% 30.29 in 10.0 mi ENE 9.2 mph - N/A   Clear
2:53 AM 35.1 °F 29.3 °F 19.0 °F 52% 30.30 in 10.0 mi East 6.9 mph - N/A   Clear
3:53 AM 35.1 °F 32.2 °F 19.9 °F 54% 30.31 in 10.0 mi SE 3.5 mph - N/A   Mostly Cloudy
4:53 AM 35.1 °F 31.0 °F 19.9 °F 54% 30.29 in 10.0 mi East 4.6 mph - N/A   Mostly Cloudy
5:53 AM 36.0 °F 31.1 °F 19.0 °F 50% 30.28 in 10.0 mi East 5.8 mph - N/A   Mostly Cloudy
6:53 AM 35.1 °F 28.6 °F 19.0 °F 52% 30.30 in 10.0 mi ENE 8.1 mph - N/A   Overcast
7:53 AM 35.1 °F 29.3 °F 19.0 °F 52% 30.32 in 10.0 mi East 6.9 mph - N/A   Overcast
8:53 AM 35.1 °F 30.1 °F 19.9 °F 54% 30.35 in 10.0 mi East 5.8 mph - N/A   Overcast
9:53 AM 37.0 °F 31.6 °F 19.9 °F 50% 30.33 in 10.0 mi East 6.9 mph - N/A   Overcast
10:53 AM 41.0 °F 35.8 °F 19.9 °F 43% 30.32 in 10.0 mi East 8.1 mph - N/A   Overcast
11:53 AM 44.1 °F 39.0 °F 19.9 °F 38% 30.33 in 10.0 mi East 9.2 mph - N/A   Scattered Clouds
12:53 PM 46.0 °F 40.6 °F 21.0 °F 37% 30.31 in 10.0 mi East 11.5 mph - N/A   Mostly Cloudy
1:53 PM 46.9 °F - 19.9 °F 34% 30.30 in 10.0 mi East 9.2 mph - N/A   Clear
2:53 PM 48.9 °F - 19.9 °F 32% 30.28 in 10.0 mi ENE 6.9 mph 17.3 mph N/A   Clear
3:53 PM 50.0 °F - 19.0 °F 29% 30.25 in 10.0 mi ESE 10.4 mph - N/A   Clear
4:53 PM 51.1 °F - 19.9 °F 29% 30.24 in 10.0 mi East 8.1 mph - N/A   Clear
5:53 PM 51.1 °F - 19.0 °F 28% 30.23 in 10.0 mi ESE 8.1 mph - N/A   Scattered Clouds
6:53 PM 51.1 °F - 19.0 °F 28% 30.23 in 10.0 mi East 8.1 mph - N/A   Mostly Cloudy
7:53 PM 46.0 °F 44.8 °F 25.0 °F 44% 30.24 in 10.0 mi SE 3.5 mph - N/A   Clear
8:53 PM 46.0 °F 43.9 °F 27.0 °F 47% 30.24 in 10.0 mi SE 4.6 mph - N/A   Mostly Cloudy
9:53 PM 45.0 °F 43.5 °F 28.0 °F 52% 30.25 in 10.0 mi SE 3.5 mph - N/A   Clear
10:53 PM 43.0 °F 39.5 °F 30.0 °F 60% 30.27 in 10.0 mi South 5.8 mph - N/A   Scattered Clouds
11:53 PM 42.1 °F 40.2 °F 30.9 °F 65% 30.28 in 10.0 mi South 3.5 mph - N/A   Clear